Total_Precipitation_Accumulation
2.30 2.36 2.32 2.37 2.32 2.34 2.32 2.04 1.77 1.85 1.96 1.91 1.67 1.62 1.71 1.69 1.74 1.92 2.12 2.06 1.97 2.12 2.42 2.62 2.71 2.68 2.60 2.57 2.54 2.54 2.51 2.48 2.45 2.32 2.06 1.85 1.75 1.72 1.74 1.77 1.77 1.73 1.66
2.60 2.62 2.58 2.55 2.53 2.62 2.58 2.33 2.15 2.28 2.24 2.18 1.95 1.83 1.82 1.87 1.87 1.98 2.12 2.08 1.85 1.79 2.06 2.45 2.69 2.83 2.89 2.88 2.73 2.57 2.55 2.50 2.52 2.41 2.21 2.00 1.87 1.80 1.75 1.75 1.78 1.77 1.72
2.85 2.92 2.96 2.81 2.66 2.67 2.72 2.65 2.53 2.49 2.43 2.23 2.10 2.08 2.03 1.88 1.83 2.02 2.13 2.11 1.99 1.90 2.00 2.15 2.35 2.61 2.98 3.14 3.02 2.88 2.77 2.71 2.61 2.50 2.39 2.21 2.04 1.90 1.80 1.77 1.77 1.74 1.72
2.86 3.10 3.15 2.90 2.72 2.66 2.82 2.93 2.80 2.71 2.67 2.59 2.35 2.12 2.05 2.01 1.92 1.95 1.96 2.02 2.15 2.06 2.10 2.07 2.14 2.33 2.63 2.91 3.09 3.13 3.04 2.91 2.80 2.71 2.62 2.44 2.30 2.09 1.91 1.85 1.81 1.76 1.73
2.98 3.18 3.28 3.23 2.96 2.93 3.02 2.91 3.09 2.94 2.91 2.73 2.39 2.21 1.99 1.85 1.87 1.85 1.90 1.91 1.93 1.98 2.03 2.05 2.09 2.17 2.37 2.62 2.81 3.01 3.06 3.02 2.84 2.65 2.63 2.64 2.48 2.25 2.08 2.03 1.94 1.84 1.78
3.12 3.31 3.34 3.40 3.26 3.28 3.41 3.36 3.36 3.16 2.91 2.74 2.38 2.18 1.94 1.70 1.66 1.69 1.69 1.69 1.66 1.67 1.77 1.83 1.96 1.97 2.10 2.28 2.59 2.89 3.20 3.29 3.10 2.87 2.76 2.68 2.52 2.27 2.12 2.12 2.08 2.01 1.93
3.68 3.85 3.74 3.67 3.47 3.41 3.47 3.44 3.29 3.18 3.03 2.96 2.82 2.47 2.02 1.63 1.48 1.42 1.49 1.53 1.49 1.48 1.58 1.72 1.75 1.78 1.85 1.92 2.07 2.41 2.86 3.21 3.23 3.07 2.95 2.82 2.63 2.43 2.29 2.24 2.23 2.18 2.10
4.33 4.24 4.14 3.91 3.68 3.49 3.32 3.24 3.16 3.06 2.88 2.86 2.85 2.75 2.37 2.02 1.60 1.30 1.41 1.46 1.46 1.55 1.55 1.50 1.49 1.51 1.50 1.63 1.78 2.05 2.39 2.64 2.91 3.13 3.09 2.90 2.74 2.62 2.54 2.45 2.41 2.37 2.32
4.23 4.08 3.99 3.81 3.65 3.49 3.27 3.24 3.19 3.10 2.96 2.92 2.94 3.01 2.79 2.30 1.81 1.49 1.37 1.38 1.47 1.57 1.58 1.51 1.42 1.41 1.45 1.54 1.62 1.83 2.09 2.17 2.37 2.66 2.89 2.83 2.73 2.75 2.75 2.74 2.70 2.66 2.61
3.96 3.80 3.81 3.71 3.54 3.36 3.19 2.98 2.94 3.01 3.08 2.93 2.82 2.63 2.49 2.25 2.10 1.81 1.56 1.47 1.45 1.48 1.50 1.46 1.39 1.41 1.49 1.62 1.77 1.81 1.87 1.86 1.94 2.09 2.24 2.40 2.47 2.58 2.69 2.67 2.72 2.80 2.84
3.65 3.44 3.40 3.30 3.11 2.93 2.79 2.66 2.59 2.66 2.75 2.74 2.71 2.60 2.48 2.31 2.10 1.96 1.76 1.62 1.57 1.48 1.43 1.45 1.43 1.46 1.52 1.58 1.65 1.70 1.75 1.70 1.74 1.80 1.85 1.99 2.13 2.29 2.45 2.58 2.70 2.85 2.99
3.42 3.14 2.85 2.76 2.71 2.52 2.28 2.22 2.22 2.22 2.29 2.38 2.48 2.43 2.27 2.16 2.06 2.03 1.92 1.76 1.70 1.59 1.53 1.51 1.45 1.43 1.50 1.47 1.42 1.57 1.52 1.51 1.55 1.62 1.67 1.73 1.77 1.86 2.03 2.25 2.53 2.74 2.90
2.95 2.69 2.47 2.34 2.26 2.20 2.07 1.99 1.98 1.86 1.85 1.92 1.96 2.09 2.09 1.97 1.87 1.92 2.02 1.96 1.80 1.63 1.53 1.46 1.32 1.27 1.30 1.40 1.49 1.50 1.35 1.30 1.26 1.27 1.34 1.49 1.59 1.64 1.64 1.78 1.99 2.27 2.50
2.45 2.22 2.13 1.98 1.77 1.62 1.56 1.59 1.63 1.62 1.61 1.63 1.62 1.77 1.86 1.86 1.83 1.83 1.87 2.06 2.01 1.77 1.62 1.46 1.32 1.26 1.27 1.32 1.43 1.31 1.24 1.19 1.11 1.14 1.17 1.25 1.36 1.52 1.53 1.48 1.48 1.59 1.78
1.90 1.78 1.71 1.70 1.59 1.46 1.38 1.35 1.37 1.46 1.46 1.44 1.45 1.54 1.60 1.59 1.60 1.66 1.74 1.89 2.05 1.95 1.75 1.52 1.49 1.43 1.41 1.39 1.47 1.28 1.28 1.22 1.16 1.22 1.24 1.27 1.34 1.49 1.55 1.45 1.35 1.28 1.28
1.61 1.47 1.39 1.39 1.40 1.37 1.35 1.39 1.38 1.40 1.44 1.36 1.32 1.30 1.31 1.29 1.34 1.39 1.50 1.62 1.78 1.90 1.78 1.45 1.40 1.47 1.48 1.37 1.52 1.38 1.33 1.27 1.21 1.41 1.56 1.51 1.48 1.66 1.80 1.75 1.56 1.42 1.36
1.39 1.31 1.23 1.18 1.18 1.23 1.24 1.27 1.24 1.19 1.14 1.11 1.08 1.08 1.10 1.16 1.24 1.25 1.28 1.43 1.64 1.82 1.84 1.50 1.37 1.45 1.59 1.55 1.55 1.49 1.39 1.34 1.37 1.74 1.93 2.13 1.89 1.79 1.90 1.89 1.78 1.58 1.43
1.21 1.17 1.07 1.01 0.98 0.98 0.98 1.00 1.02 1.02 1.02 0.96 0.99 1.05 1.05 1.08 1.13 1.20 1.26 1.34 1.48 1.70 1.86 1.74 1.52 1.53 1.59 1.60 1.64 1.62 1.41 1.26 1.31 1.75 2.04 2.34 2.30 2.06 2.08 1.92 1.77 1.59 1.47
1.09 1.03 0.99 0.99 0.92 0.90 0.86 0.85 0.88 0.93 0.94 0.89 0.93 0.99 1.05 1.16 1.15 1.17 1.24 1.29 1.40 1.53 1.81 1.85 1.66 1.63 1.69 1.74 1.86 1.72 1.54 1.50 1.25 1.50 1.91 2.25 2.41 2.43 2.50 2.36 2.05 1.70 1.48
1.06 1.01 0.99 0.93 0.88 0.84 0.83 0.82 0.83 0.86 0.87 0.87 0.92 0.98 1.02 1.15 1.23 1.26 1.26 1.30 1.36 1.50 1.69 1.85 1.79 1.75 1.80 1.88 1.92 1.86 1.73 1.58 1.42 1.34 1.77 2.24 2.57 2.60 2.76 2.84 2.54 2.07 1.67
0.99 0.98 0.97 0.92 0.87 0.82 0.78 0.77 0.77 0.79 0.87 0.89 0.87 0.89 0.92 1.04 1.14 1.13 1.06 1.10 1.27 1.50 1.59 1.77 1.81 1.78 1.77 1.90 1.87 1.67 1.61 1.54 1.38 1.30 1.52 1.91 2.60 2.92 2.95 2.99 2.86 2.35 1.88
0.99 0.97 0.96 0.92 0.85 0.72 0.74 0.75 0.73 0.77 0.82 0.85 0.84 0.83 0.80 0.80 0.80 0.82 0.87 0.93 1.08 1.35 1.67 1.88 1.83 1.77 1.65 1.65 1.71 1.65 1.65 1.66 1.58 1.28 1.26 1.53 2.12 2.91 3.15 3.08 2.96 2.35 1.80
0.95 0.90 0.87 0.87 0.83 0.76 0.72 0.66 0.68 0.75 0.84 0.89 0.91 0.89 0.71 0.62 0.73 0.79 0.85 0.89 1.02 1.20 1.50 1.85 1.93 1.71 1.66 1.63 1.70 1.69 1.74 1.79 1.66 1.33 1.35 1.60 1.96 2.65 2.84 2.82 2.71 2.06 1.62
0.92 0.92 0.89 0.88 0.87 0.75 0.69 0.63 0.65 0.72 0.82 0.84 0.85 0.87 0.88 0.82 0.78 0.87 0.94 1.01 1.13 1.25 1.37 1.49 1.78 1.60 1.41 1.43 1.53 1.59 1.69 1.69 1.59 1.40 1.43 1.71 1.96 2.42 2.42 2.50 2.39 1.89 1.51
0.87 0.82 0.82 0.85 0.89 0.85 0.74 0.66 0.63 0.69 0.77 0.78 0.75 0.74 0.74 0.77 0.85 1.02 1.15 1.34 1.45 1.55 1.46 1.62 1.79 1.74 1.60 1.54 1.43 1.50 1.73 1.77 1.67 1.50 1.49 1.73 1.89 1.99 2.12 2.21 1.99 1.77 1.49
0.85 0.79 0.77 0.80 0.84 0.80 0.67 0.57 0.56 0.62 0.73 0.76 0.79 0.77 0.70 0.66 0.78 0.96 1.21 1.50 1.65 1.71 1.58 1.69 1.96 2.01 1.84 1.84 1.81 1.70 1.82 1.86 1.78 1.70 1.47 1.57 1.76 1.76 1.98 1.94 1.78 1.64 1.56